FW8724 Weather Reports


Display with metric or nautical units.
time (UTC)temp
F
wind
direction
speed
MPH
gust
MPH
rain 1hr
in
rain 24hr
in
rain mn
in
humidity
%
barometer
mb
20260508153054 41 304 6.0 8.0 0.00 0.70 0.00 93 1002.3
20260508151545 41 317 5.0 8.0 0.00 0.70 0.00 94 1002.3
20260508150045 41 284 6.0 8.0 0.00 0.70 0.00 93 1002.3
20260508144550 42 314 4.0 7.0 0.00 0.70 0.00 94 1002.3
20260508143054 42 296 5.0 8.0 0.00 0.70 0.00 93 1002.4
20260508141600 42 310 5.0 7.0 0.00 0.70 0.00 94 1002.5
20260508140047 42 321 4.0 7.0 0.00 0.70 0.00 93 1002.8
20260508134545 42 298 3.0 8.0 0.00 0.70 0.00 93 1002.7
20260508133045 42 306 5.0 7.0 0.00 0.70 0.00 93 1002.7
20260508131556 42 305 5.0 7.0 0.00 0.70 0.00 92 1002.2
20260508130042 43 329 4.0 7.0 0.00 0.70 0.00 93 1002.2
20260508124539 44 299 4.0 6.0 0.00 0.70 0.00 93 1001.9
20260508123056 46 323 5.0 6.0 0.00 0.70 0.00 93 1001.9
20260508121548 45 359 1.0 5.0 0.00 0.70 0.00 94 1002.0
20260508120104 44 317 4.0 6.0 0.00 0.70 0.00 94 1002.1
20260508114555 43 311 2.0 4.0 0.00 0.70 0.00 94 1002.0
20260508113041 44 316 0.0 3.0 0.00 0.70 0.00 94 1002.1
20260508111549 43 307 3.0 4.0 0.00 0.70 0.00 94 1002.1
20260508110051 43 274 0.0 2.0 0.00 0.70 0.00 94 1002.3
20260508104547 43 274 0.0 2.0 0.00 0.70 0.00 94 1002.6
20260508103058 42 0 0.0 2.0 0.00 0.70 0.00 94 1002.4
20260508101551 41 0 0.0 2.0 0.00 0.70 0.00 94 1002.4
20260508100040 41 274 0.0 2.0 0.00 0.70 0.00 94 1002.5
20260508094540 41 274 1.0 2.0 0.00 0.70 0.00 94 1002.2
20260508093046 40 274 0.0 2.0 0.00 0.70 0.00 94 1002.2
20260508091545 41 274 1.0 2.0 0.00 0.70 0.00 94 1002.3
20260508090050 41 274 1.0 2.0 0.00 0.70 0.00 94 1002.0
20260508084609 41 274 0.0 4.0 0.00 0.70 0.00 94 1001.9
20260508083045 42 276 2.0 3.0 0.00 0.70 0.00 94 1001.8
20260508081539 42 86 0.0 2.0 0.00 0.70 0.00 94 1001.4
20260508080039 42 86 0.0 2.0 0.00 0.70 0.00 94 1001.7
20260508074538 42 86 1.0 2.0 0.00 0.70 0.00 94 1001.5
20260508073045 43 89 0.0 2.0 0.00 0.70 0.00 94 1001.7
20260508071550 43 89 0.0 2.0 0.00 0.70 0.00 94 1001.8
20260508070040 43 89 0.0 2.0 0.00 0.70 0.00 94 1001.9
20260508064549 44 86 1.0 2.0 0.00 0.70 0.00 94 1001.8
20260508063056 44 86 1.0 2.0 0.00 0.70 0.00 94 1001.8
20260508061548 44 80 1.0 3.0 0.00 0.70 0.00 94 1001.8
20260508060046 44 48 1.0 4.0 0.00 0.70 0.00 94 1001.7
20260508054544 44 66 1.0 4.0 0.00 0.70 0.00 94 1002.1
20260508053042 43 31 1.0 2.0 0.00 0.70 0.00 94 1002.2
20260508051542 43 5 1.0 3.0 0.00 0.70 0.00 93 1002.4
20260508050048 43 359 2.0 4.0 0.00 0.70 0.00 93 1002.1
20260508044545 43 359 2.0 2.0 0.00 0.70 0.00 93 1002.1
20260508043056 44 4 1.0 4.0 0.00 0.70 0.00 93 1002.1
20260508041549 45 76 1.0 3.0 0.00 0.70 0.00 93 1002.3
20260508040042 45 75 1.0 3.0 0.00 0.70 0.00 93 1002.4
20260508034539 46 332 2.0 5.0 0.00 0.70 0.00 92 1002.4
20260508033039 47 216 0.0 2.0 0.00 0.70 0.00 93 1002.5
20260508031544 47 0 0.0 2.0 0.00 0.70 0.00 93 1002.2
20260508030051 47 216 1.0 2.0 0.00 0.70 0.00 93 1002.1
20260508024541 46 216 2.0 2.0 0.00 0.70 0.70 93 1002.2
20260508023038 46 216 2.0 2.0 0.00 0.70 0.70 93 1002.3
20260508021551 45 0 0.0 2.0 0.01 0.70 0.70 92 1002.6
20260508020049 46 172 0.0 3.0 0.02 0.70 0.70 93 1002.5
20260508014544 45 228 2.0 2.0 0.03 0.70 0.70 93 1002.9
20260508013053 45 267 1.0 2.0 0.04 0.70 0.70 92 1003.0
20260508011543 46 271 1.0 2.0 0.05 0.69 0.69 92 1002.8
20260508010038 46 244 0.0 2.0 0.06 0.68 0.68 92 1002.8
20260508004538 46 244 1.0 2.0 0.08 0.67 0.67 92 1002.7
20260508003045 46 244 0.0 2.0 0.08 0.66 0.66 92 1002.8
20260508001607 46 241 1.0 3.0 0.06 0.64 0.64 92 1002.9
20260508000047 46 221 2.0 7.0 0.04 0.62 0.62 91 1002.9
20260507234547 47 272 9.0 11.0 0.01 0.58 0.58 89 1002.8
20260507233046 49 249 3.0 7.0 0.00 0.58 0.58 91 1002.1
20260507231545 49 212 4.0 9.0 0.00 0.58 0.58 90 1002.1
20260507230044 52 212 12.0 21.0 0.00 0.58 0.58 84 1001.8
20260507224547 55 182 6.0 14.0 0.00 0.58 0.58 86 1001.2
20260507223039 55 153 10.0 13.0 0.00 0.58 0.58 86 1001.1
20260507221538 54 110 9.0 18.0 0.00 0.58 0.58 87 1001.0
20260507220048 55 139 9.0 18.0 0.00 0.58 0.58 87 1001.0
20260507214548 54 143 10.0 16.0 0.00 0.58 0.58 87 1001.1
20260507213044 54 134 11.0 21.0 0.00 0.58 0.58 88 1000.8
20260507211539 54 131 11.0 24.0 0.00 0.58 0.58 88 1000.8
20260507210041 54 146 12.0 20.0 0.01 0.58 0.58 88 1001.0
20260507204552 54 138 12.0 23.0 0.01 0.58 0.58 88 1000.9
20260507203048 55 158 11.0 20.0 0.06 0.58 0.58 88 1000.8
20260507201542 54 148 14.0 22.0 0.12 0.58 0.58 88 1000.4
20260507200043 54 124 14.0 24.0 0.13 0.57 0.57 89 1000.5
20260507194541 54 145 17.0 25.0 0.15 0.57 0.57 89 1000.9
20260507193039 54 91 15.0 24.0 0.15 0.52 0.52 89 1001.5
20260507191538 54 145 12.0 17.0 0.14 0.46 0.46 89 1003.1
20260507190052 54 121 12.0 19.0 0.19 0.44 0.44 89 1003.0
20260507184548 54 142 9.0 18.0 0.26 0.42 0.42 89 1003.0
20260507183044 54 148 5.0 15.0 0.31 0.36 0.36 89 1003.5
20260507181540 54 139 13.0 22.0 0.32 0.32 0.32 89 1003.6
20260507180039 54 193 6.0 14.0 0.25 0.25 0.25 90 1004.2
20260507174551 54 203 6.0 11.0 0.16 0.16 0.16 88 1004.3
20260507173046 55 136 9.0 26.0 0.05 0.05 0.05 87 1003.9
20260507171543 55 118 14.0 30.0 0.00 0.00 0.00 85 1002.9
20260507170049 56 139 18.0 32.0 0.00 0.00 0.00 83 1002.7
20260507164539 57 146 15.0 31.0 0.00 0.00 0.00 79 1002.9
20260507163040 57 180 15.0 27.0 0.00 0.00 0.00 79 1003.4
20260507161539 59 133 20.0 44.0 0.00 0.00 0.00 77 1003.3
20260507160046 59 154 17.0 36.0 0.00 0.00 0.00 77 1004.2
20260507154548 59 155 19.0 32.0 0.00 0.00 0.00 75 1004.2